QPF
0.02 0.02 0.03 0.04 0.02 0.02 0.03 0.04 0.03 0.01 0.01 0.01 0.01 0.01 0.00 0.00 0.00 0.00 0.00 0.00 0.00 0.00 0.01 0.01 0.01 0.01 0.01 0.01 0.02 0.01 0.02 0.02 0.01 0.00 0.00 0.00 0.00 0.00 0.00 0.00 0.01 0.01 0.02
0.02 0.02 0.02 0.04 0.03 0.02 0.02 0.02 0.02 0.01 0.01 0.00 0.00 0.00 0.00 0.01 0.00 0.00 0.00 0.00 0.01 0.01 0.02 0.02 0.01 0.01 0.01 0.01 0.01 0.01 0.02 0.01 0.01 0.00 0.00 0.00 0.00 0.00 0.01 0.01 0.01 0.01 0.01
0.01 0.02 0.02 0.02 0.02 0.01 0.01 0.01 0.01 0.01 0.01 0.00 0.00 0.00 0.00 0.01 0.01 0.00 0.00 0.00 0.01 0.01 0.01 0.02 0.01 0.01 0.01 0.01 0.01 0.01 0.01 0.01 0.00 0.00 0.00 0.00 0.00 0.00 0.00 0.01 0.01 0.00 0.01
0.01 0.01 0.01 0.01 0.01 0.01 0.01 0.01 0.01 0.01 0.01 0.00 0.00 0.00 0.00 0.01 0.00 0.00 0.00 0.00 0.01 0.01 0.01 0.01 0.01 0.01 0.01 0.02 0.01 0.01 0.01 0.01 0.00 0.01 0.00 0.01 0.01 0.01 0.00 0.01 0.00 0.00 0.00
0.00 0.01 0.01 0.01 0.01 0.01 0.00 0.00 0.00 0.00 0.00 0.00 0.00 0.00 0.00 0.00 0.00 0.00 0.00 0.00 0.01 0.01 0.01 0.01 0.01 0.01 0.01 0.01 0.01 0.01 0.00 0.00 0.00 0.00 0.00 0.01 0.01 0.01 0.01 0.01 0.01 0.01 0.00
0.00 0.00 0.01 0.01 0.01 0.01 0.01 0.00 0.00 0.00 0.00 0.00 0.00 0.00 0.00 0.00 0.00 0.00 0.00 0.00 0.01 0.02 0.01 0.01 0.00 0.00 0.01 0.01 0.01 0.01 0.02 0.02 0.02 0.02 0.01 0.01 0.01 0.01 0.01 0.01 0.01 0.01 0.01
0.01 0.00 0.01 0.01 0.01 0.01 0.01 0.01 0.00 0.01 0.01 0.01 0.00 0.01 0.00 0.00 0.00 0.00 0.00 0.00 0.01 0.01 0.01 0.00 0.00 0.01 0.01 0.01 0.00 0.00 0.01 0.02 0.03 0.04 0.04 0.05 0.04 0.02 0.01 0.00 0.01 0.02 0.01
0.00 0.00 0.01 0.01 0.01 0.01 0.01 0.01 0.01 0.01 0.01 0.01 0.01 0.01 0.00 0.00 0.00 0.00 0.00 0.00 0.00 0.01 0.00 0.00 0.00 0.00 0.01 0.00 0.00 0.00 0.00 0.00 0.01 0.02 0.02 0.03 0.03 0.02 0.01 0.00 0.01 0.01 0.01
0.01 0.00 0.00 0.00 0.01 0.01 0.01 0.01 0.01 0.01 0.01 0.01 0.01 0.00 0.00 0.00 0.00 0.00 0.00 0.00 0.00 0.00 0.00 0.00 0.00 0.00 0.00 0.00 0.00 0.00 0.00 0.00 0.00 0.00 0.00 0.00 0.00 0.00 0.00 0.00 0.01 0.02 0.01
0.01 0.01 0.01 0.01 0.00 0.01 0.01 0.01 0.01 0.01 0.02 0.01 0.01 0.00 0.00 0.00 0.00 0.00 0.00 0.00 0.00 0.00 0.00 0.00 0.00 0.00 0.00 0.00 0.00 0.00 0.00 0.00 0.00 0.00 0.00 0.00 0.00 0.00 0.00 0.00 0.00 0.01 0.01
0.01 0.01 0.02 0.02 0.02 0.01 0.01 0.01 0.01 0.01 0.01 0.01 0.01 0.01 0.00 0.00 0.00 0.00 0.00 0.00 0.00 0.00 0.00 0.00 0.00 0.00 0.00 0.00 0.00 0.00 0.00 0.00 0.00 0.00 0.00 0.00 0.00 0.00 0.00 0.00 0.00 0.00 0.00
0.01 0.01 0.01 0.02 0.02 0.02 0.02 0.02 0.01 0.01 0.01 0.01 0.01 0.01 0.00 0.00 0.00 0.00 0.00 0.00 0.00 0.00 0.00 0.00 0.00 0.00 0.00 0.00 0.00 0.00 0.00 0.00 0.00 0.00 0.00 0.00 0.00 0.00 0.00 0.00 0.00 0.00 0.00
0.01 0.01 0.01 0.01 0.01 0.01 0.01 0.01 0.01 0.01 0.01 0.01 0.01 0.01 0.01 0.01 0.01 0.01 0.01 0.00 0.00 0.00 0.00 0.00 0.00 0.00 0.00 0.00 0.00 0.00 0.00 0.00 0.00 0.00 0.00 0.00 0.00 0.00 0.00 0.00 0.00 0.00 0.00
0.01 0.01 0.01 0.01 0.01 0.01 0.01 0.01 0.00 0.01 0.01 0.01 0.01 0.01 0.01 0.01 0.01 0.01 0.01 0.01 0.00 0.00 0.00 0.00 0.00 0.01 0.01 0.01 0.01 0.01 0.01 0.02 0.02 0.02 0.02 0.02 0.01 0.01 0.01 0.00 0.00 0.00 0.00
0.01 0.01 0.01 0.01 0.01 0.01 0.01 0.01 0.01 0.01 0.01 0.02 0.02 0.02 0.02 0.02 0.02 0.02 0.01 0.01 0.00 0.00 0.00 0.00 0.00 0.01 0.01 0.01 0.01 0.01 0.01 0.01 0.01 0.01 0.01 0.01 0.00 0.00 0.00 0.00 0.00 0.00 0.00
0.00 0.00 0.00 0.01 0.01 0.01 0.01 0.01 0.01 0.01 0.02 0.02 0.02 0.02 0.02 0.02 0.03 0.02 0.01 0.00 0.00 0.00 0.00 0.00 0.00 0.00 0.01 0.01 0.01 0.01 0.01 0.01 0.01 0.01 0.01 0.01 0.01 0.01 0.01 0.00 0.00 0.00 0.00
0.00 0.01 0.01 0.01 0.01 0.01 0.01 0.01 0.01 0.01 0.01 0.01 0.01 0.01 0.01 0.02 0.02 0.02 0.01 0.01 0.01 0.00 0.00 0.00 0.00 0.00 0.00 0.00 0.01 0.01 0.01 0.01 0.01 0.01 0.01 0.01 0.01 0.01 0.00 0.00 0.00 0.00 0.00
0.00 0.01 0.01 0.01 0.01 0.01 0.01 0.01 0.01 0.01 0.01 0.01 0.02 0.02 0.01 0.01 0.01 0.01 0.01 0.01 0.01 0.01 0.01 0.01 0.00 0.00 0.01 0.01 0.01 0.01 0.01 0.00 0.01 0.01 0.01 0.01 0.01 0.00 0.00 0.00 0.00 0.00 0.00
0.01 0.01 0.01 0.01 0.01 0.01 0.01 0.02 0.01 0.01 0.01 0.01 0.02 0.03 0.02 0.02 0.01 0.01 0.01 0.01 0.01 0.01 0.01 0.02 0.01 0.01 0.01 0.01 0.01 0.01 0.01 0.01 0.01 0.01 0.01 0.01 0.00 0.00 0.01 0.01 0.00 0.00 0.00
0.01 0.01 0.01 0.01 0.01 0.01 0.02 0.02 0.02 0.01 0.01 0.01 0.02 0.04 0.04 0.02 0.01 0.02 0.02 0.02 0.02 0.02 0.02 0.02 0.02 0.02 0.02 0.02 0.01 0.01 0.01 0.01 0.01 0.01 0.01 0.01 0.01 0.02 0.02 0.02 0.01 0.01 0.01
0.01 0.01 0.01 0.01 0.01 0.01 0.02 0.02 0.02 0.02 0.02 0.02 0.03 0.05 0.05 0.04 0.03 0.03 0.02 0.02 0.02 0.02 0.02 0.02 0.02 0.02 0.02 0.02 0.02 0.02 0.03 0.03 0.03 0.02 0.02 0.02 0.01 0.01 0.01 0.01 0.01 0.01 0.01
0.00 0.01 0.01 0.01 0.01 0.01 0.02 0.02 0.03 0.03 0.04 0.05 0.05 0.06 0.05 0.04 0.04 0.03 0.03 0.02 0.02 0.01 0.01 0.01 0.01 0.02 0.02 0.03 0.03 0.04 0.04 0.05 0.05 0.04 0.03 0.03 0.02 0.02 0.01 0.01 0.01 0.01 0.02
0.01 0.01 0.01 0.01 0.02 0.02 0.02 0.02 0.03 0.03 0.04 0.04 0.04 0.05 0.04 0.03 0.03 0.03 0.04 0.03 0.03 0.03 0.03 0.02 0.02 0.02 0.03 0.03 0.04 0.04 0.04 0.04 0.04 0.04 0.05 0.05 0.04 0.04 0.04 0.03 0.03 0.02 0.02
0.02 0.02 0.02 0.02 0.03 0.03 0.02 0.03 0.03 0.02 0.02 0.02 0.02 0.03 0.03 0.03 0.03 0.03 0.03 0.02 0.02 0.03 0.03 0.03 0.04 0.03 0.03 0.03 0.04 0.04 0.04 0.04 0.04 0.04 0.04 0.04 0.04 0.03 0.03 0.03 0.02 0.01 0.01
0.03 0.03 0.02 0.02 0.03 0.04 0.03 0.03 0.03 0.02 0.02 0.02 0.02 0.02 0.02 0.02 0.02 0.02 0.02 0.02 0.02 0.02 0.02 0.02 0.02 0.02 0.03 0.03 0.03 0.03 0.03 0.04 0.04 0.04 0.03 0.03 0.02 0.02 0.02 0.02 0.02 0.02 0.01
0.03 0.03 0.03 0.03 0.03 0.04 0.04 0.04 0.03 0.02 0.02 0.02 0.02 0.02 0.02 0.01 0.01 0.01 0.01 0.01 0.01 0.01 0.01 0.01 0.01 0.02 0.02 0.02 0.02 0.02 0.02 0.02 0.02 0.02 0.02 0.02 0.02 0.02 0.02 0.02 0.02 0.02 0.02
MSLP
1019.40 1019.52 1019.63 1019.71 1019.75 1019.75 1019.70 1019.63 1019.56 1019.50 1019.48 1019.50 1019.57 1019.66 1019.76 1019.84 1019.90 1019.91 1019.87 1019.80 1019.71 1019.62 1019.55 1019.51 1019.52 1019.56 1019.64 1019.73 1019.83 1019.93 1020.03 1020.13 1020.23 1020.35 1020.50 1020.68 1020.90 1021.14 1021.41 1021.68 1021.94 1022.17 1022.36
1019.57 1019.69 1019.80 1019.89 1019.92 1019.91 1019.85 1019.77 1019.68 1019.62 1019.59 1019.62 1019.70 1019.82 1019.95 1020.08 1020.18 1020.23 1020.24 1020.20 1020.13 1020.04 1019.96 1019.91 1019.89 1019.90 1019.94 1020.01 1020.09 1020.17 1020.26 1020.35 1020.44 1020.55 1020.68 1020.85 1021.05 1021.29 1021.56 1021.85 1022.15 1022.43 1022.70
1019.72 1019.86 1019.99 1020.08 1020.12 1020.11 1020.05 1019.96 1019.87 1019.80 1019.78 1019.81 1019.91 1020.04 1020.20 1020.36 1020.49 1020.58 1020.62 1020.61 1020.56 1020.48 1020.41 1020.35 1020.32 1020.32 1020.34 1020.40 1020.47 1020.54 1020.62 1020.70 1020.78 1020.86 1020.97 1021.11 1021.28 1021.48 1021.73 1022.02 1022.33 1022.66 1022.99
1019.84 1020.00 1020.16 1020.27 1020.33 1020.33 1020.28 1020.21 1020.13 1020.07 1020.05 1020.09 1020.19 1020.33 1020.50 1020.67 1020.81 1020.92 1020.98 1020.99 1020.95 1020.90 1020.83 1020.78 1020.75 1020.75 1020.78 1020.84 1020.91 1020.99 1021.07 1021.13 1021.20 1021.26 1021.33 1021.42 1021.54 1021.70 1021.91 1022.17 1022.48 1022.83 1023.20
1019.88 1020.08 1020.27 1020.42 1020.51 1020.55 1020.53 1020.48 1020.42 1020.38 1020.37 1020.42 1020.52 1020.65 1020.81 1020.98 1021.12 1021.22 1021.28 1021.29 1021.26 1021.21 1021.16 1021.12 1021.11 1021.13 1021.18 1021.26 1021.35 1021.44 1021.52 1021.59 1021.64 1021.67 1021.71 1021.75 1021.82 1021.92 1022.08 1022.30 1022.58 1022.92 1023.32
1019.82 1020.06 1020.29 1020.48 1020.62 1020.70 1020.73 1020.72 1020.70 1020.69 1020.70 1020.75 1020.84 1020.97 1021.11 1021.24 1021.36 1021.44 1021.48 1021.47 1021.44 1021.40 1021.36 1021.34 1021.35 1021.40 1021.48 1021.58 1021.70 1021.82 1021.91 1021.99 1022.03 1022.05 1022.05 1022.05 1022.07 1022.12 1022.22 1022.39 1022.63 1022.95 1023.34
1019.64 1019.91 1020.17 1020.41 1020.60 1020.74 1020.83 1020.88 1020.90 1020.93 1020.97 1021.03 1021.11 1021.22 1021.33 1021.43 1021.51 1021.55 1021.56 1021.53 1021.49 1021.45 1021.41 1021.41 1021.45 1021.52 1021.64 1021.78 1021.92 1022.07 1022.19 1022.27 1022.32 1022.33 1022.32 1022.29 1022.27 1022.28 1022.33 1022.45 1022.65 1022.93 1023.29
1019.33 1019.62 1019.91 1020.20 1020.44 1020.63 1020.78 1020.89 1020.97 1021.04 1021.11 1021.19 1021.27 1021.36 1021.44 1021.50 1021.54 1021.55 1021.52 1021.48 1021.42 1021.38 1021.35 1021.36 1021.42 1021.52 1021.66 1021.82 1021.99 1022.16 1022.30 1022.41 1022.47 1022.50 1022.48 1022.45 1022.42 1022.40 1022.42 1022.50 1022.66 1022.90 1023.22
1018.93 1019.22 1019.54 1019.84 1020.12 1020.37 1020.58 1020.74 1020.88 1021.00 1021.10 1021.20 1021.29 1021.36 1021.43 1021.46 1021.47 1021.45 1021.40 1021.34 1021.28 1021.23 1021.22 1021.24 1021.30 1021.41 1021.56 1021.74 1021.93 1022.11 1022.28 1022.40 1022.49 1022.54 1022.55 1022.54 1022.52 1022.50 1022.52 1022.58 1022.70 1022.90 1023.19
1018.50 1018.78 1019.09 1019.40 1019.71 1019.99 1020.24 1020.45 1020.64 1020.79 1020.93 1021.05 1021.15 1021.23 1021.28 1021.31 1021.31 1021.28 1021.23 1021.16 1021.11 1021.06 1021.05 1021.08 1021.14 1021.25 1021.40 1021.57 1021.76 1021.95 1022.12 1022.27 1022.39 1022.47 1022.53 1022.56 1022.58 1022.60 1022.64 1022.70 1022.81 1022.98 1023.22
1018.11 1018.35 1018.64 1018.94 1019.24 1019.54 1019.81 1020.05 1020.27 1020.45 1020.62 1020.76 1020.87 1020.96 1021.02 1021.05 1021.06 1021.04 1021.00 1020.96 1020.91 1020.88 1020.88 1020.90 1020.96 1021.06 1021.18 1021.33 1021.50 1021.68 1021.85 1022.02 1022.17 1022.31 1022.43 1022.52 1022.61 1022.69 1022.77 1022.86 1022.98 1023.14 1023.34
1017.83 1018.02 1018.25 1018.52 1018.80 1019.07 1019.34 1019.58 1019.81 1020.01 1020.18 1020.34 1020.46 1020.57 1020.64 1020.70 1020.72 1020.73 1020.72 1020.71 1020.69 1020.68 1020.68 1020.70 1020.75 1020.82 1020.91 1021.02 1021.16 1021.32 1021.48 1021.67 1021.86 1022.05 1022.23 1022.42 1022.59 1022.75 1022.90 1023.05 1023.19 1023.35 1023.53
1017.70 1017.82 1017.99 1018.19 1018.42 1018.65 1018.88 1019.10 1019.30 1019.49 1019.66 1019.81 1019.94 1020.06 1020.15 1020.23 1020.29 1020.33 1020.36 1020.38 1020.40 1020.41 1020.42 1020.43 1020.46 1020.49 1020.55 1020.62 1020.72 1020.84 1021.01 1021.20 1021.43 1021.68 1021.94 1022.22 1022.49 1022.75 1022.99 1023.20 1023.39 1023.57 1023.75
1017.75 1017.79 1017.87 1017.99 1018.14 1018.30 1018.46 1018.63 1018.79 1018.94 1019.08 1019.21 1019.33 1019.44 1019.54 1019.64 1019.73 1019.80 1019.87 1019.93 1019.98 1020.01 1020.03 1020.04 1020.04 1020.04 1020.05 1020.08 1020.14 1020.25 1020.40 1020.60 1020.87 1021.18 1021.52 1021.89 1022.27 1022.63 1022.96 1023.26 1023.52 1023.74 1023.93
1017.98 1017.92 1017.91 1017.93 1017.98 1018.05 1018.13 1018.21 1018.29 1018.38 1018.47 1018.56 1018.64 1018.74 1018.83 1018.93 1019.04 1019.14 1019.23 1019.32 1019.38 1019.43 1019.46 1019.46 1019.44 1019.42 1019.39 1019.39 1019.42 1019.50 1019.64 1019.86 1020.16 1020.52 1020.95 1021.41 1021.88 1022.35 1022.78 1023.17 1023.50 1023.78 1024.01
1018.35 1018.20 1018.09 1018.01 1017.95 1017.91 1017.88 1017.87 1017.86 1017.86 1017.88 1017.90 1017.94 1017.99 1018.06 1018.14 1018.23 1018.34 1018.44 1018.53 1018.61 1018.66 1018.69 1018.68 1018.65 1018.60 1018.55 1018.52 1018.53 1018.60 1018.75 1018.98 1019.31 1019.72 1020.20 1020.74 1021.30 1021.86 1022.39 1022.87 1023.28 1023.64 1023.94
1018.83 1018.59 1018.38 1018.19 1018.03 1017.88 1017.74 1017.62 1017.52 1017.42 1017.35 1017.29 1017.26 1017.25 1017.27 1017.32 1017.38 1017.46 1017.55 1017.63 1017.70 1017.74 1017.76 1017.75 1017.70 1017.64 1017.58 1017.53 1017.53 1017.59 1017.74 1017.98 1018.33 1018.77 1019.30 1019.90 1020.52 1021.16 1021.77 1022.34 1022.84 1023.28 1023.66
1019.36 1019.05 1018.75 1018.47 1018.20 1017.95 1017.72 1017.49 1017.29 1017.10 1016.93 1016.79 1016.68 1016.60 1016.55 1016.54 1016.55 1016.58 1016.63 1016.68 1016.73 1016.75 1016.75 1016.72 1016.67 1016.60 1016.53 1016.48 1016.47 1016.53 1016.68 1016.92 1017.27 1017.73 1018.28 1018.90 1019.57 1020.26 1020.94 1021.58 1022.17 1022.71 1023.18
1019.92 1019.55 1019.18 1018.82 1018.47 1018.13 1017.81 1017.50 1017.20 1016.93 1016.67 1016.45 1016.25 1016.09 1015.96 1015.88 1015.82 1015.79 1015.78 1015.79 1015.79 1015.78 1015.76 1015.71 1015.65 1015.57 1015.50 1015.44 1015.43 1015.49 1015.62 1015.86 1016.20 1016.64 1017.18 1017.81 1018.49 1019.20 1019.92 1020.62 1021.29 1021.92 1022.49
1020.47 1020.05 1019.64 1019.22 1018.81 1018.40 1018.01 1017.63 1017.26 1016.91 1016.58 1016.28 1016.01 1015.76 1015.56 1015.39 1015.25 1015.15 1015.08 1015.02 1014.97 1014.92 1014.86 1014.80 1014.72 1014.64 1014.56 1014.50 1014.48 1014.52 1014.64 1014.85 1015.15 1015.56 1016.07 1016.66 1017.32 1018.03 1018.77 1019.51 1020.24 1020.95 1021.62
1020.98 1020.54 1020.09 1019.64 1019.18 1018.74 1018.29 1017.86 1017.44 1017.04 1016.65 1016.28 1015.94 1015.62 1015.34 1015.09 1014.87 1014.69 1014.54 1014.42 1014.31 1014.21 1014.12 1014.03 1013.94 1013.84 1013.76 1013.69 1013.66 1013.68 1013.76 1013.93 1014.19 1014.54 1014.99 1015.52 1016.14 1016.82 1017.55 1018.31 1019.08 1019.85 1020.61
1021.43 1020.97 1020.51 1020.04 1019.56 1019.09 1018.62 1018.16 1017.71 1017.26 1016.83 1016.41 1016.00 1015.62 1015.27 1014.95 1014.65 1014.40 1014.17 1013.98 1013.82 1013.67 1013.54 1013.42 1013.31 1013.20 1013.10 1013.03 1012.98 1012.97 1013.01 1013.13 1013.32 1013.60 1013.98 1014.44 1015.00 1015.63 1016.33 1017.08 1017.87 1018.69 1019.51
1021.78 1021.33 1020.86 1020.38 1019.90 1019.41 1018.93 1018.46 1017.98 1017.51 1017.04 1016.59 1016.14 1015.70 1015.29 1014.90 1014.54 1014.22 1013.93 1013.67 1013.45 1013.26 1013.09 1012.94 1012.81 1012.68 1012.58 1012.48 1012.41 1012.37 1012.38 1012.44 1012.57 1012.78 1013.08 1013.47 1013.95 1014.53 1015.19 1015.92 1016.71 1017.54 1018.40
1022.03 1021.58 1021.11 1020.63 1020.15 1019.67 1019.18 1018.70 1018.21 1017.72 1017.23 1016.74 1016.26 1015.78 1015.32 1014.88 1014.46 1014.08 1013.73 1013.42 1013.15 1012.92 1012.72 1012.54 1012.38 1012.24 1012.12 1012.01 1011.92 1011.86 1011.83 1011.84 1011.92 1012.07 1012.30 1012.63 1013.05 1013.57 1014.18 1014.88 1015.66 1016.49 1017.37
1022.17 1021.72 1021.25 1020.78 1020.30 1019.82 1019.34 1018.85 1018.35 1017.85 1017.34 1016.83 1016.31 1015.80 1015.30 1014.82 1014.36 1013.93 1013.54 1013.19 1012.88 1012.61 1012.37 1012.17 1011.99 1011.84 1011.70 1011.58 1011.47 1011.39 1011.34 1011.32 1011.37 1011.47 1011.66 1011.94 1012.32 1012.80 1013.38 1014.05 1014.81 1015.63 1016.50
1022.20 1021.76 1021.30 1020.83 1020.36 1019.88 1019.39 1018.90 1018.39 1017.88 1017.35 1016.82 1016.28 1015.75 1015.22 1014.70 1014.21 1013.75 1013.33 1012.94 1012.60 1012.30 1012.04 1011.81 1011.61 1011.44 1011.29 1011.15 1011.04 1010.95 1010.89 1010.87 1010.90 1010.99 1011.17 1011.43 1011.79 1012.25 1012.81 1013.46 1014.20 1015.00 1015.85
Thickness
5700 5698 5696 5695 5696 5695 5694 5693 5693 5693 5692 5692 5692 5692 5692 5692 5691 5688 5688 5687 5688 5688 5687 5686 5684 5683 5682 5681 5680 5680 5678 5677 5671 5668 5666 5663 5660 5658 5655 5653 5651 5649 5646
5699 5697 5696 5695 5694 5694 5693 5693 5693 5693 5692 5692 5691 5691 5691 5690 5690 5688 5686 5685 5685 5685 5684 5683 5681 5679 5678 5678 5676 5675 5674 5672 5670 5665 5662 5660 5657 5655 5652 5651 5649 5646 5643
5698 5697 5696 5695 5694 5693 5692 5691 5692 5691 5690 5691 5690 5690 5689 5688 5687 5686 5684 5684 5683 5682 5681 5680 5679 5678 5676 5674 5673 5672 5670 5669 5666 5663 5660 5656 5655 5652 5650 5648 5646 5643 5641
5697 5696 5695 5694 5693 5692 5692 5690 5690 5689 5689 5689 5689 5688 5687 5686 5685 5685 5683 5682 5681 5680 5678 5677 5677 5676 5674 5672 5670 5668 5666 5664 5662 5659 5657 5654 5651 5648 5647 5645 5643 5640 5638
5695 5694 5693 5693 5692 5690 5689 5688 5687 5687 5687 5686 5686 5685 5685 5683 5683 5683 5682 5680 5679 5677 5676 5674 5672 5670 5668 5668 5667 5665 5663 5660 5658 5655 5653 5650 5647 5644 5643 5642 5639 5637 5634
5694 5693 5691 5691 5690 5688 5687 5686 5685 5684 5684 5683 5683 5682 5680 5679 5676 5675 5677 5677 5677 5675 5673 5672 5669 5666 5662 5660 5658 5657 5656 5656 5655 5652 5649 5647 5644 5641 5638 5637 5635 5633 5630
5694 5692 5690 5689 5687 5686 5685 5683 5682 5681 5680 5679 5679 5678 5676 5674 5672 5671 5670 5673 5674 5673 5672 5670 5667 5663 5660 5659 5655 5651 5650 5648 5647 5649 5646 5643 5641 5638 5635 5633 5630 5628 5624
5694 5692 5689 5687 5685 5683 5682 5681 5680 5679 5677 5676 5675 5674 5672 5670 5668 5667 5667 5669 5670 5669 5668 5667 5664 5661 5658 5657 5655 5652 5649 5646 5643 5642 5641 5638 5635 5632 5630 5628 5626 5623 5620
5692 5690 5688 5686 5684 5682 5680 5679 5679 5677 5676 5674 5673 5671 5670 5668 5665 5664 5663 5666 5665 5665 5664 5662 5660 5658 5653 5650 5651 5648 5645 5641 5636 5634 5632 5629 5626 5624 5623 5623 5621 5619 5616
5691 5689 5687 5685 5683 5680 5679 5678 5676 5674 5673 5671 5670 5669 5669 5667 5663 5661 5660 5663 5662 5661 5659 5657 5653 5652 5648 5646 5647 5646 5642 5639 5636 5631 5628 5625 5623 5620 5617 5616 5615 5614 5612
5690 5688 5685 5683 5682 5680 5678 5675 5673 5671 5669 5668 5667 5666 5666 5665 5661 5658 5656 5660 5659 5658 5655 5653 5649 5644 5642 5641 5641 5641 5637 5635 5633 5629 5626 5622 5619 5616 5613 5609 5607 5605 5604
5687 5685 5682 5681 5679 5677 5674 5671 5670 5668 5665 5664 5663 5663 5662 5661 5658 5655 5653 5653 5654 5654 5651 5649 5645 5640 5637 5635 5634 5632 5629 5628 5627 5625 5622 5618 5615 5611 5607 5603 5599 5596 5593
5685 5682 5680 5678 5676 5674 5671 5669 5667 5665 5663 5661 5660 5659 5658 5657 5654 5651 5649 5647 5646 5646 5645 5642 5638 5634 5632 5629 5626 5625 5624 5623 5622 5619 5617 5613 5609 5604 5600 5596 5593 5589 5586
5682 5680 5678 5675 5673 5671 5669 5667 5665 5664 5662 5660 5659 5657 5656 5654 5652 5650 5647 5643 5640 5639 5637 5633 5630 5628 5627 5625 5622 5620 5619 5619 5617 5614 5611 5607 5602 5597 5593 5590 5587 5583 5581
5679 5677 5675 5673 5671 5668 5666 5665 5664 5662 5661 5658 5657 5656 5654 5652 5651 5648 5646 5643 5641 5638 5635 5631 5629 5626 5624 5622 5620 5618 5615 5612 5609 5607 5604 5600 5596 5592 5587 5583 5580 5578 5576
5675 5674 5672 5670 5667 5665 5663 5659 5655 5656 5654 5653 5652 5652 5651 5649 5645 5643 5640 5638 5635 5632 5630 5629 5626 5624 5622 5619 5617 5614 5611 5608 5605 5602 5598 5594 5590 5586 5582 5578 5574 5572 5569
5674 5672 5669 5667 5664 5662 5660 5657 5653 5648 5646 5646 5645 5645 5645 5642 5640 5637 5634 5631 5628 5625 5626 5625 5623 5621 5618 5616 5613 5610 5607 5603 5600 5596 5592 5589 5585 5580 5576 5572 5568 5565 5561
5671 5668 5666 5664 5662 5659 5657 5655 5652 5649 5646 5643 5640 5638 5637 5636 5633 5631 5627 5624 5622 5620 5622 5621 5619 5616 5613 5610 5607 5605 5602 5598 5594 5590 5586 5582 5579 5575 5570 5566 5562 5557 5553
5666 5664 5663 5661 5659 5656 5654 5652 5649 5647 5644 5641 5638 5633 5630 5628 5626 5623 5622 5623 5622 5619 5617 5615 5613 5611 5608 5605 5601 5598 5595 5592 5588 5584 5580 5576 5572 5568 5563 5559 5555 5548 5544
5661 5659 5657 5657 5655 5652 5650 5647 5645 5642 5640 5637 5635 5632 5626 5623 5622 5618 5617 5618 5617 5615 5612 5609 5607 5604 5601 5598 5595 5591 5588 5585 5581 5578 5574 5570 5565 5561 5556 5551 5547 5542 5537
5657 5654 5651 5652 5651 5649 5646 5643 5641 5638 5636 5634 5631 5629 5624 5623 5620 5617 5614 5613 5611 5609 5606 5604 5601 5597 5594 5591 5588 5585 5582 5578 5574 5570 5567 5563 5558 5553 5548 5543 5538 5533 5528
5653 5650 5648 5647 5646 5644 5641 5639 5636 5634 5631 5629 5626 5621 5617 5617 5615 5612 5609 5607 5605 5602 5600 5597 5594 5591 5587 5584 5582 5579 5575 5571 5567 5562 5558 5554 5550 5545 5540 5535 5530 5525 5519
5647 5645 5644 5642 5640 5637 5635 5634 5631 5629 5626 5624 5621 5617 5613 5612 5609 5606 5603 5600 5598 5595 5591 5588 5586 5583 5579 5576 5573 5570 5568 5564 5559 5555 5551 5546 5542 5537 5532 5527 5521 5516 5511
5641 5640 5638 5636 5634 5632 5630 5628 5626 5623 5621 5618 5615 5612 5609 5605 5602 5599 5596 5592 5589 5586 5583 5580 5578 5575 5572 5568 5565 5561 5558 5555 5551 5547 5543 5538 5533 5528 5523 5517 5512 5508 5502
5635 5634 5632 5630 5628 5626 5624 5622 5619 5617 5614 5611 5609 5605 5602 5598 5595 5591 5587 5584 5581 5578 5575 5572 5569 5566 5563 5560 5556 5553 5549 5545 5541 5538 5533 5529 5524 5519 5514 5509 5504 5499 5493
5627 5626 5625 5623 5621 5619 5617 5614 5611 5609 5606 5603 5600 5597 5594 5590 5587 5583 5580 5576 5573 5569 5566 5563 5560 5557 5554 5551 5547 5543 5540 5536 5532 5528 5523 5519 5514 5509 5504 5500 5495 5489 5484